URKAI UHMM-UHPP

Flight info

Callsign URKAI
Flight time 1h 57m
Altitude 29000
Route INDEM5C INDEM B927 UHR W310 NILUK W214 KULOD KULOD5N
Aircraft TBM9/L-SDFGY/C

Departure

Time 2026-04-27 04:43
Airport Sokol Airport (UHMM)

Arrival

Time 2026-04-27 06:40
Airport Yelizovo Airport (UHPP)
Time Latitude Longitude Altitude Speed Heading
2026-04-27 04:31 59.91286 150.72838 567 ft 0 kts
2026-04-27 04:38 59.91290 150.72838 567 ft 3 kts
2026-04-27 04:38 59.91320 150.72887 571 ft 9 kts 98°
2026-04-27 04:39 59.91316 150.73032 570 ft 11 kts 94°
2026-04-27 04:39 59.91306 150.73190 569 ft 12 kts 134°
2026-04-27 04:39 59.91236 150.73281 572 ft 12 kts 193°
2026-04-27 04:39 59.91198 150.73198 569 ft 0 kts 229°
2026-04-27 04:40 59.91187 150.73169 569 ft 10 kts 237°
2026-04-27 04:40 59.91098 150.72978 570 ft 20 kts 174°
2026-04-27 04:40 59.91067 150.73202 571 ft 18 kts 92°
2026-04-27 04:40 59.91057 150.73535 574 ft 35 kts 92°
2026-04-27 04:41 59.91040 150.74184 572 ft 57 kts 95°
2026-04-27 04:41 59.91023 150.74838 579 ft 29 kts 90°
2026-04-27 04:41 59.91017 150.75093 579 ft 11 kts 298°
2026-04-27 04:41 59.91016 150.75044 579 ft 0 kts 272°
2026-04-27 04:42 59.91016 150.75034 579 ft 8 kts 271°
2026-04-27 04:42 59.91032 150.74492 576 ft 70 kts 273°
2026-04-27 04:42 59.91043 150.73163 647 ft 115 kts 270°
2026-04-27 04:43 59.91051 150.71389 870 ft 140 kts 272°
2026-04-27 04:43 59.91099 150.69487 1551 ft 132 kts 281°
2026-04-27 04:43 59.91165 150.67597 2118 ft 145 kts 274°
2026-04-27 04:43 59.91144 150.65558 2755 ft 147 kts 274°
2026-04-27 04:44 59.91149 150.63450 3192 ft 166 kts 275°
2026-04-27 04:44 59.91142 150.61029 3194 ft 178 kts 273°
2026-04-27 04:44 59.91153 150.58568 3198 ft 175 kts 283°
2026-04-27 04:44 59.91697 150.56739 3203 ft 145 kts 331°
2026-04-27 04:45 59.92573 150.56588 3204 ft 123 kts 28°
2026-04-27 04:45 59.93019 150.58024 3216 ft 134 kts 86°
2026-04-27 04:45 59.92654 150.59806 3211 ft 145 kts 122°
2026-04-27 04:45 59.92047 150.61448 3202 ft 148 kts 123°
2026-04-27 04:46 59.91443 150.63112 3199 ft 149 kts 123°
2026-04-27 04:46 59.90839 150.64746 3305 ft 146 kts 122°
2026-04-27 04:46 59.90223 150.66459 3594 ft 160 kts 121°
2026-04-27 04:46 59.89556 150.68334 3880 ft 168 kts 122°
2026-04-27 04:47 59.88864 150.70252 4176 ft 173 kts 123°
2026-04-27 04:47 59.88162 150.72235 4459 ft 176 kts 122°
2026-04-27 04:47 59.87460 150.74233 4751 ft 178 kts 123°
2026-04-27 04:47 59.86675 150.76194 5019 ft 182 kts 130°
2026-04-27 04:48 59.86090 150.77412 5202 ft 182 kts 132°
2026-04-27 04:48 59.85276 150.80220 5547 ft 178 kts 101°
2026-04-27 04:48 59.85022 150.82629 5817 ft 178 kts 99°
2026-04-27 04:48 59.84763 150.85046 6096 ft 180 kts 100°
2026-04-27 04:49 59.84592 150.86658 6284 ft 179 kts 99°
2026-04-27 04:49 59.84336 150.89110 6557 ft 183 kts 99°
2026-04-27 04:49 59.84078 150.91598 6810 ft 183 kts 99°
2026-04-27 04:49 59.83817 150.94077 7072 ft 183 kts 99°
2026-04-27 04:50 59.83554 150.96569 7349 ft 185 kts 100°
2026-04-27 04:50 59.83075 150.99798 7704 ft 187 kts 123°
2026-04-27 04:50 59.82445 151.00983 7895 ft 191 kts 144°
2026-04-27 04:50 59.81354 151.02567 8218 ft 186 kts 136°
2026-04-27 04:51 59.80481 151.04395 8581 ft 182 kts 129°
2026-04-27 04:51 59.79654 151.06274 8852 ft 183 kts 130°
2026-04-27 04:51 59.78794 151.08164 9298 ft 184 kts 130°
2026-04-27 04:51 59.77932 151.10044 9811 ft 185 kts 130°
2026-04-27 04:52 59.77064 151.11933 10313 ft 186 kts 130°
2026-04-27 04:52 59.76189 151.13855 10803 ft 188 kts 130°
2026-04-27 04:52 59.75305 151.15785 11322 ft 190 kts 130°
2026-04-27 04:52 59.74410 151.17738 11836 ft 192 kts 130°
2026-04-27 04:53 59.73502 151.19712 12357 ft 194 kts 130°
2026-04-27 04:53 59.72586 151.21704 12867 ft 196 kts 130°
2026-04-27 04:53 59.71660 151.23716 13415 ft 199 kts 130°
2026-04-27 04:53 59.70736 151.25729 13927 ft 201 kts 130°
2026-04-27 04:54 59.69788 151.27782 14411 ft 203 kts 130°
2026-04-27 04:54 59.68830 151.29858 14913 ft 204 kts 130°
2026-04-27 04:54 59.67868 151.31947 15381 ft 206 kts 130°
2026-04-27 04:54 59.66893 151.34056 15860 ft 208 kts 130°
2026-04-27 04:55 59.65911 151.36180 16337 ft 210 kts 130°
2026-04-27 04:55 59.64922 151.38315 16833 ft 212 kts 130°
2026-04-27 04:55 59.63920 151.40471 17322 ft 213 kts 130°
2026-04-27 04:55 59.62928 151.42622 17808 ft 215 kts 130°
2026-04-27 04:56 59.61910 151.44810 18298 ft 217 kts 130°
2026-04-27 04:56 59.60884 151.47020 18720 ft 219 kts 130°
2026-04-27 04:56 59.59845 151.49263 19098 ft 225 kts 130°
2026-04-27 04:56 59.58749 151.51607 19282 ft 236 kts 131°
2026-04-27 04:57 59.57631 151.53993 19709 ft 237 kts 130°
2026-04-27 04:57 59.56507 151.56405 20095 ft 240 kts 130°
2026-04-27 04:57 59.55373 151.58844 20483 ft 241 kts 130°
2026-04-27 04:57 59.54243 151.61258 20861 ft 243 kts 130°
2026-04-27 04:58 59.53089 151.63724 21235 ft 246 kts 130°
2026-04-27 04:58 59.51924 151.66211 21627 ft 248 kts 130°
2026-04-27 04:58 59.50748 151.68715 22015 ft 250 kts 130°
2026-04-27 04:58 59.49561 151.71240 22401 ft 252 kts 130°
2026-04-27 04:59 59.48426 151.73879 22774 ft 253 kts 127°
2026-04-27 04:59 59.47291 151.76541 23170 ft 256 kts 127°
2026-04-27 04:59 59.46133 151.79223 23563 ft 258 kts 127°
2026-04-27 04:59 59.44967 151.81939 23904 ft 260 kts 127°
2026-04-27 05:00 59.43813 151.84633 24216 ft 262 kts 127°
2026-04-27 05:00 59.42633 151.87384 24543 ft 263 kts 127°
2026-04-27 05:00 59.41446 151.90143 24865 ft 265 kts 127°
2026-04-27 05:00 59.40257 151.92907 25196 ft 266 kts 128°
2026-04-27 05:01 59.39056 151.95698 25530 ft 268 kts 127°
2026-04-27 05:01 59.37843 151.98505 25846 ft 270 kts 127°
2026-04-27 05:01 59.36621 152.01332 26182 ft 272 kts 127°
2026-04-27 05:01 59.35392 152.04174 26506 ft 273 kts 127°
2026-04-27 05:02 59.34174 152.06990 26829 ft 275 kts 127°
2026-04-27 05:02 59.32929 152.09862 27150 ft 276 kts 127°
2026-04-27 05:02 59.30419 152.15639 27784 ft 279 kts 127°
2026-04-27 05:03 59.29169 152.18513 28112 ft 281 kts 127°
2026-04-27 05:03 59.27895 152.21434 28442 ft 283 kts 127°
2026-04-27 05:03 59.26616 152.24370 28752 ft 284 kts 127°
2026-04-27 05:03 59.25323 152.27331 29058 ft 287 kts 127°
2026-04-27 05:04 59.23999 152.30356 29073 ft 298 kts 127°
2026-04-27 05:04 59.21209 152.36710 29082 ft 316 kts 127°
2026-04-27 05:05 59.18289 152.43350 29083 ft 327 kts 128°
2026-04-27 05:05 59.15286 152.50162 29086 ft 334 kts 128°
2026-04-27 05:06 59.12246 152.57039 29087 ft 338 kts 128°
2026-04-27 05:06 59.09168 152.63975 29091 ft 339 kts 128°
2026-04-27 05:07 59.06094 152.70893 29090 ft 338 kts 128°
2026-04-27 05:07 59.03011 152.77803 29090 ft 338 kts 128°
2026-04-27 05:08 58.99920 152.84712 29094 ft 338 kts 128°
2026-04-27 05:08 58.96851 152.91556 29097 ft 338 kts 128°
2026-04-27 05:09 58.93755 152.98422 29091 ft 338 kts 129°
2026-04-27 05:09 58.90659 153.05288 29095 ft 338 kts 129°
2026-04-27 05:10 58.87561 153.12130 29096 ft 338 kts 129°
2026-04-27 05:10 58.84466 153.18963 29099 ft 338 kts 129°
2026-04-27 05:11 58.81367 153.25756 29094 ft 338 kts 129°
2026-04-27 05:11 58.78256 153.32570 29097 ft 338 kts 129°
2026-04-27 05:12 58.75166 153.39315 29096 ft 338 kts 129°
2026-04-27 05:12 58.72049 153.46099 29098 ft 338 kts 129°
2026-04-27 05:13 58.68934 153.52859 29095 ft 337 kts 129°
2026-04-27 05:13 58.65805 153.59630 29094 ft 337 kts 129°
2026-04-27 05:14 58.62706 153.66317 29093 ft 337 kts 130°
2026-04-27 05:14 58.59579 153.73043 29091 ft 337 kts 130°
2026-04-27 05:15 58.56444 153.79768 29092 ft 337 kts 130°
2026-04-27 05:15 58.53335 153.86418 29090 ft 337 kts 130°
2026-04-27 05:16 58.50197 153.93111 29088 ft 337 kts 130°
2026-04-27 05:16 58.47059 153.99784 29089 ft 337 kts 130°
2026-04-27 05:17 58.43916 154.06449 29091 ft 337 kts 130°
2026-04-27 05:17 58.40781 154.13077 29086 ft 338 kts 130°
2026-04-27 05:18 58.37625 154.19732 29091 ft 338 kts 130°
2026-04-27 05:18 58.34491 154.26320 29087 ft 338 kts 130°
2026-04-27 05:19 58.31330 154.32946 29086 ft 338 kts 131°
2026-04-27 05:19 58.28170 154.39552 29087 ft 338 kts 131°
2026-04-27 05:20 58.25001 154.46156 29084 ft 338 kts 131°
2026-04-27 05:20 58.21864 154.52800 29088 ft 338 kts 130°
2026-04-27 05:21 58.18755 154.59475 29087 ft 337 kts 130°
2026-04-27 05:21 58.15649 154.66068 29088 ft 337 kts 130°
2026-04-27 05:22 58.12516 154.72723 29085 ft 337 kts 130°
2026-04-27 05:22 58.09383 154.79348 29083 ft 338 kts 130°
2026-04-27 05:23 58.06262 154.85934 29087 ft 337 kts 131°
2026-04-27 05:23 58.03125 154.92532 29085 ft 338 kts 131°
2026-04-27 05:24 57.99987 154.99114 29083 ft 337 kts 131°
2026-04-27 05:24 57.96841 155.05697 29085 ft 338 kts 131°
2026-04-27 05:25 57.93691 155.12267 29087 ft 337 kts 131°
2026-04-27 05:25 57.90563 155.18772 29087 ft 338 kts 131°
2026-04-27 05:26 57.87407 155.25320 29089 ft 337 kts 131°
2026-04-27 05:26 57.84246 155.31857 29083 ft 338 kts 131°
2026-04-27 05:27 57.81081 155.38385 29091 ft 338 kts 131°
2026-04-27 05:27 57.77934 155.44857 29084 ft 338 kts 131°
2026-04-27 05:28 57.74766 155.51357 29088 ft 338 kts 132°
2026-04-27 05:28 57.71590 155.57852 29084 ft 338 kts 132°
2026-04-27 05:29 57.68412 155.64337 29087 ft 338 kts 132°
2026-04-27 05:29 57.65232 155.70801 29088 ft 338 kts 132°
2026-04-27 05:30 57.62067 155.77221 29086 ft 338 kts 133°
2026-04-27 05:30 57.58876 155.83675 29084 ft 338 kts 133°
2026-04-27 05:31 57.55682 155.90117 29087 ft 338 kts 133°
2026-04-27 05:31 57.52485 155.96549 29089 ft 338 kts 133°
2026-04-27 05:32 57.49286 156.02965 29087 ft 338 kts 133°
2026-04-27 05:32 57.46105 156.09326 29089 ft 338 kts 133°
2026-04-27 05:33 57.42901 156.15718 29084 ft 338 kts 133°
2026-04-27 05:33 57.39691 156.22102 29086 ft 338 kts 133°
2026-04-27 05:34 57.36474 156.28486 29088 ft 338 kts 133°
2026-04-27 05:34 57.33281 156.34802 29089 ft 338 kts 133°
2026-04-27 05:35 57.30059 156.41159 29085 ft 338 kts 134°
2026-04-27 05:35 57.26839 156.47493 29082 ft 338 kts 134°
2026-04-27 05:36 57.23877 156.54242 29083 ft 338 kts 128°
2026-04-27 05:36 57.20952 156.61038 29080 ft 338 kts 129°
2026-04-27 05:37 57.18049 156.67794 29084 ft 338 kts 129°
2026-04-27 05:37 57.15023 156.74416 29091 ft 337 kts 138°
2026-04-27 05:37 57.13167 156.77067 29101 ft 337 kts 149°
2026-04-27 05:38 57.11100 156.79054 29095 ft 335 kts 159°
2026-04-27 05:38 57.06813 156.82361 29090 ft 336 kts 159°
2026-04-27 05:39 57.03227 156.85138 29084 ft 336 kts 159°
2026-04-27 05:39 56.98914 156.88447 29076 ft 336 kts 159°
2026-04-27 05:40 56.93902 156.92299 29073 ft 335 kts 160°
2026-04-27 05:40 56.90291 156.95062 29068 ft 336 kts 160°
2026-04-27 05:41 56.86062 156.98294 29069 ft 329 kts 161°
2026-04-27 05:41 56.81827 157.01509 29068 ft 330 kts 161°
2026-04-27 05:42 56.77602 157.04798 29069 ft 330 kts 161°
2026-04-27 05:42 56.73346 157.07931 29065 ft 330 kts 161°
2026-04-27 05:43 56.69127 157.11159 29065 ft 330 kts 161°
2026-04-27 05:43 56.64874 157.14356 29068 ft 331 kts 161°
2026-04-27 05:44 56.60625 157.17557 29062 ft 331 kts 161°
2026-04-27 05:44 56.56367 157.20758 29059 ft 331 kts 162°
2026-04-27 05:45 56.52124 157.23929 29063 ft 331 kts 161°
2026-04-27 05:45 56.47857 157.27120 29061 ft 332 kts 162°
2026-04-27 05:46 56.43578 157.30308 29057 ft 332 kts 162°
2026-04-27 05:46 56.39302 157.33488 29059 ft 332 kts 162°
2026-04-27 05:47 56.35045 157.36645 29057 ft 333 kts 162°
2026-04-27 05:47 56.30758 157.39818 29055 ft 333 kts 162°
2026-04-27 05:48 56.26464 157.42988 29060 ft 333 kts 162°
2026-04-27 05:48 56.22169 157.46151 29063 ft 334 kts 162°
2026-04-27 05:49 56.17894 157.49290 29053 ft 334 kts 162°
2026-04-27 05:49 56.13589 157.52445 29054 ft 334 kts 162°
2026-04-27 05:50 56.09275 157.55600 29053 ft 334 kts 162°
2026-04-27 05:50 56.04960 157.58746 29050 ft 335 kts 162°
2026-04-27 05:51 56.00667 157.61869 29045 ft 335 kts 162°
2026-04-27 05:51 55.96345 157.65006 29045 ft 335 kts 163°
2026-04-27 05:52 55.92018 157.68138 29045 ft 336 kts 163°
2026-04-27 05:52 55.87685 157.71267 29041 ft 336 kts 163°
2026-04-27 05:53 55.83342 157.74397 29036 ft 336 kts 163°
2026-04-27 05:53 55.78998 157.77519 29034 ft 337 kts 163°
2026-04-27 05:54 55.74670 157.80622 29029 ft 337 kts 163°
2026-04-27 05:54 55.70310 157.83741 29030 ft 337 kts 163°
2026-04-27 05:55 55.65946 157.86855 29026 ft 337 kts 163°
2026-04-27 05:55 55.61584 157.89960 29022 ft 338 kts 163°
2026-04-27 05:56 55.57219 157.93060 29017 ft 338 kts 163°
2026-04-27 05:56 55.52881 157.96133 29011 ft 338 kts 163°
2026-04-27 05:57 55.48501 157.99228 29012 ft 338 kts 163°
2026-04-27 05:57 55.44122 158.02316 29001 ft 339 kts 163°
2026-04-27 05:58 55.39738 158.05400 28998 ft 339 kts 163°
2026-04-27 05:58 55.35377 158.08459 28998 ft 339 kts 163°
2026-04-27 05:59 55.30992 158.11530 28994 ft 340 kts 164°
2026-04-27 05:59 55.26596 158.14599 28990 ft 340 kts 164°
2026-04-27 06:00 55.19992 158.19197 28989 ft 340 kts 164°
2026-04-27 06:00 55.15606 158.22244 28983 ft 341 kts 164°
2026-04-27 06:01 55.11191 158.25299 28982 ft 342 kts 164°
2026-04-27 06:01 55.06761 158.28363 28983 ft 342 kts 164°
2026-04-27 06:02 55.02334 158.31411 28975 ft 342 kts 164°
2026-04-27 06:02 54.97934 158.34438 28977 ft 342 kts 165°
2026-04-27 06:03 54.93496 158.37482 28977 ft 342 kts 165°
2026-04-27 06:03 54.89057 158.40520 28970 ft 342 kts 165°
2026-04-27 06:04 54.84643 158.43533 28974 ft 343 kts 165°
2026-04-27 06:04 54.80193 158.46565 28970 ft 343 kts 165°
2026-04-27 06:05 54.75747 158.49586 28970 ft 343 kts 165°
2026-04-27 06:05 54.71328 158.52582 28966 ft 343 kts 165°
2026-04-27 06:06 54.66786 158.54653 28983 ft 332 kts 184°
2026-04-27 06:06 54.62216 158.54452 28982 ft 328 kts 189°
2026-04-27 06:07 54.57680 158.54184 28975 ft 328 kts 190°
2026-04-27 06:07 54.53119 158.53884 28965 ft 328 kts 190°
2026-04-27 06:08 54.48655 158.53612 28799 ft 314 kts 190°
2026-04-27 06:08 54.46468 158.53469 28508 ft 315 kts 191°
2026-04-27 06:08 54.44273 158.53321 28221 ft 316 kts 191°
2026-04-27 06:09 54.42062 158.53179 27934 ft 317 kts 190°
2026-04-27 06:09 54.39859 158.53040 27661 ft 317 kts 190°
2026-04-27 06:09 54.37680 158.52902 27389 ft 316 kts 190°
2026-04-27 06:09 54.35493 158.52763 27109 ft 313 kts 190°
2026-04-27 06:10 54.33317 158.52625 26837 ft 311 kts 191°
2026-04-27 06:10 54.31154 158.52487 26567 ft 310 kts 191°
2026-04-27 06:10 54.29005 158.52350 26302 ft 308 kts 191°
2026-04-27 06:10 54.26859 158.52213 26037 ft 307 kts 191°
2026-04-27 06:11 54.24726 158.52077 25777 ft 306 kts 190°
2026-04-27 06:11 54.22603 158.51943 25516 ft 305 kts 190°
2026-04-27 06:11 54.20483 158.51808 25257 ft 304 kts 190°
2026-04-27 06:11 54.18369 158.51674 25011 ft 303 kts 190°
2026-04-27 06:12 54.16282 158.51542 24763 ft 303 kts 190°
2026-04-27 06:12 54.14169 158.51408 24509 ft 302 kts 190°
2026-04-27 06:12 54.12067 158.51275 24264 ft 301 kts 190°
2026-04-27 06:12 54.09973 158.51143 24018 ft 301 kts 190°
2026-04-27 06:13 54.07905 158.51013 23775 ft 300 kts 190°
2026-04-27 06:13 54.05818 158.50882 23533 ft 299 kts 190°
2026-04-27 06:13 54.03736 158.50751 23237 ft 298 kts 190°
2026-04-27 06:13 54.01660 158.50620 22948 ft 297 kts 190°
2026-04-27 06:14 53.99595 158.50490 22660 ft 296 kts 190°
2026-04-27 06:14 53.97538 158.50361 22374 ft 295 kts 189°
2026-04-27 06:14 53.95493 158.50233 22095 ft 294 kts 190°
2026-04-27 06:14 53.93453 158.50106 21818 ft 291 kts 189°
2026-04-27 06:15 53.91435 158.49982 21537 ft 289 kts 189°
2026-04-27 06:15 53.89460 158.49858 21264 ft 286 kts 189°
2026-04-27 06:15 53.87471 158.49734 20990 ft 284 kts 189°
2026-04-27 06:15 53.85498 158.49610 20726 ft 283 kts 189°
2026-04-27 06:16 53.83534 158.49488 20458 ft 282 kts 189°
2026-04-27 06:16 53.81580 158.49368 20194 ft 281 kts 189°
2026-04-27 06:16 53.79622 158.49244 19929 ft 280 kts 189°
2026-04-27 06:16 53.77676 158.49121 19675 ft 279 kts 189°
2026-04-27 06:17 53.75739 158.49004 19414 ft 278 kts 189°
2026-04-27 06:17 53.73814 158.48885 19153 ft 275 kts 189°
2026-04-27 06:17 53.71936 158.48769 18907 ft 273 kts 189°
2026-04-27 06:17 53.70030 158.48969 18519 ft 277 kts 175°
2026-04-27 06:18 53.68162 158.49700 18122 ft 274 kts 173°
2026-04-27 06:18 53.66313 158.50390 17696 ft 270 kts 174°
2026-04-27 06:18 53.64487 158.51055 17278 ft 267 kts 174°
2026-04-27 06:18 53.62677 158.51729 16860 ft 265 kts 173°
2026-04-27 06:19 53.60887 158.52400 16453 ft 262 kts 173°
2026-04-27 06:19 53.59111 158.53063 16050 ft 261 kts 173°
2026-04-27 06:19 53.57346 158.53718 15648 ft 258 kts 173°
2026-04-27 06:19 53.55596 158.54367 15247 ft 257 kts 172°
2026-04-27 06:20 53.53863 158.55011 14871 ft 254 kts 172°
2026-04-27 06:20 53.52134 158.55654 14486 ft 253 kts 172°
2026-04-27 06:20 53.50423 158.56287 14107 ft 251 kts 172°
2026-04-27 06:20 53.48728 158.56915 13733 ft 249 kts 171°
2026-04-27 06:21 53.47039 158.57542 13312 ft 247 kts 171°
2026-04-27 06:21 53.45365 158.58158 12894 ft 246 kts 171°
2026-04-27 06:21 53.43733 158.58764 12611 ft 240 kts 171°
2026-04-27 06:21 53.42115 158.59366 12337 ft 237 kts 171°
2026-04-27 06:22 53.40510 158.59958 12063 ft 235 kts 171°
2026-04-27 06:22 53.38920 158.60542 11794 ft 233 kts 171°
2026-04-27 06:22 53.37345 158.61120 11524 ft 231 kts 171°
2026-04-27 06:22 53.35774 158.61699 11253 ft 230 kts 171°
2026-04-27 06:23 53.34212 158.62274 10999 ft 229 kts 170°
2026-04-27 06:23 53.32711 158.62830 10962 ft 220 kts 170°
2026-04-27 06:23 53.31237 158.63376 10965 ft 214 kts 170°
2026-04-27 06:23 53.29788 158.63907 10957 ft 211 kts 171°
2026-04-27 06:24 53.28360 158.64431 10963 ft 208 kts 171°
2026-04-27 06:24 53.26948 158.64950 10960 ft 206 kts 171°
2026-04-27 06:24 53.25546 158.65462 10961 ft 205 kts 171°
2026-04-27 06:24 53.24149 158.65974 10951 ft 205 kts 171°
2026-04-27 06:25 53.22757 158.66484 10959 ft 205 kts 171°
2026-04-27 06:25 53.21379 158.66987 10959 ft 205 kts 171°
2026-04-27 06:25 53.19989 158.67495 10954 ft 205 kts 171°
2026-04-27 06:25 53.18597 158.68004 10962 ft 204 kts 171°
2026-04-27 06:26 53.17205 158.68512 10960 ft 204 kts 171°
2026-04-27 06:26 53.15834 158.69012 10960 ft 204 kts 171°
2026-04-27 06:26 53.14451 158.69521 10958 ft 204 kts 169°
2026-04-27 06:26 53.13114 158.70359 10846 ft 209 kts 158°
2026-04-27 06:27 53.11783 158.71292 10584 ft 204 kts 160°
2026-04-27 06:27 53.10488 158.72176 10332 ft 198 kts 160°
2026-04-27 06:27 53.09226 158.73037 10063 ft 194 kts 160°
2026-04-27 06:27 53.08013 158.73867 9769 ft 183 kts 160°
2026-04-27 06:28 53.06854 158.74661 9444 ft 176 kts 160°
2026-04-27 06:28 53.05750 158.75417 9127 ft 168 kts 160°
2026-04-27 06:28 53.04675 158.76149 8808 ft 166 kts 160°
2026-04-27 06:28 53.03613 158.76875 8502 ft 165 kts 160°
2026-04-27 06:29 53.02571 158.77586 8206 ft 163 kts 160°
2026-04-27 06:29 53.01507 158.78114 7912 ft 155 kts 180°
2026-04-27 06:29 53.00490 158.77865 7621 ft 143 kts 206°
2026-04-27 06:29 52.99673 158.77030 7331 ft 133 kts 229°
2026-04-27 06:30 52.99158 158.75843 7169 ft 119 kts 249°
2026-04-27 06:30 52.98826 158.74583 7160 ft 121 kts 250°
2026-04-27 06:30 52.98479 158.73275 7167 ft 126 kts 252°
2026-04-27 06:30 52.98127 158.71873 6933 ft 137 kts 252°
2026-04-27 06:31 52.97764 158.70448 6681 ft 131 kts 251°
2026-04-27 06:31 52.97399 158.69020 6251 ft 139 kts 251°
2026-04-27 06:31 52.97008 158.67492 5805 ft 148 kts 251°
2026-04-27 06:31 52.96737 158.66438 5517 ft 152 kts 251°
2026-04-27 06:32 52.96209 158.64221 4934 ft 156 kts 256°
2026-04-27 06:32 52.96081 158.62476 4501 ft 150 kts 278°
2026-04-27 06:32 52.96229 158.61370 4205 ft 147 kts 292°
2026-04-27 06:32 52.96760 158.59954 3815 ft 142 kts 315°
2026-04-27 06:33 52.97609 158.58689 3737 ft 109 kts 318°
2026-04-27 06:33 52.98257 158.58108 3612 ft 109 kts 328°
2026-04-27 06:33 52.98728 158.57711 3521 ft 114 kts 332°
2026-04-27 06:33 52.99448 158.57171 3381 ft 115 kts 333°
2026-04-27 06:34 53.00176 158.56647 3236 ft 113 kts 333°
2026-04-27 06:34 53.00894 158.56132 3093 ft 112 kts 333°
2026-04-27 06:34 53.01620 158.55635 2951 ft 113 kts 334°
2026-04-27 06:34 53.02347 158.55138 2817 ft 112 kts 334°
2026-04-27 06:35 53.03052 158.54652 2669 ft 107 kts 333°
2026-04-27 06:35 53.03734 158.54182 2535 ft 106 kts 333°
2026-04-27 06:35 53.04411 158.53716 2391 ft 105 kts 330°
2026-04-27 06:35 53.05097 158.53279 2256 ft 106 kts 338°
2026-04-27 06:36 53.05789 158.52847 2100 ft 105 kts 333°
2026-04-27 06:36 53.06427 158.52332 2000 ft 102 kts 332°
2026-04-27 06:36 53.07102 158.51902 1869 ft 104 kts 335°
2026-04-27 06:36 53.07769 158.51457 1736 ft 103 kts 330°
2026-04-27 06:37 53.08441 158.50992 1560 ft 105 kts 332°
2026-04-27 06:37 53.09107 158.50492 1415 ft 106 kts 331°
2026-04-27 06:37 53.09804 158.49988 1265 ft 112 kts 334°
2026-04-27 06:37 53.10530 158.49517 1097 ft 109 kts 329°
2026-04-27 06:38 53.11210 158.49042 990 ft 104 kts 331°
2026-04-27 06:38 53.11879 158.48579 852 ft 105 kts 335°
2026-04-27 06:38 53.12524 158.48115 749 ft 103 kts 331°
2026-04-27 06:38 53.13188 158.47679 661 ft 100 kts 332°
2026-04-27 06:39 53.13820 158.47221 505 ft 97 kts 333°
2026-04-27 06:39 53.14428 158.46795 397 ft 93 kts 333°
2026-04-27 06:39 53.15017 158.46387 285 ft 89 kts 335°
2026-04-27 06:39 53.15580 158.46000 160 ft 85 kts 333°
2026-04-27 06:40 53.16080 158.45654 122 ft 70 kts 326°
2026-04-27 06:40 53.16291 158.45544 121 ft 20 kts 351°
2026-04-27 06:40 53.16241 158.45539 121 ft 13 kts 161°
2026-04-27 06:40 53.16126 158.45592 124 ft 21 kts 197°
2026-04-27 06:41 53.16061 158.45400 121 ft 20 kts 261°
2026-04-27 06:41 53.16157 158.45271 124 ft 19 kts 317°
2026-04-27 06:41 53.16268 158.45184 122 ft 18 kts 322°
2026-04-27 06:41 53.16345 158.45124 124 ft 9 kts 327°
2026-04-27 06:42 53.16405 158.45126 124 ft 9 kts 338°
2026-04-27 06:42 53.16486 158.45069 123 ft 18 kts 338°
2026-04-27 06:42 53.16633 158.44965 124 ft 27 kts 340°
2026-04-27 06:42 53.16806 158.44840 124 ft 27 kts 334°
2026-04-27 06:43 53.16981 158.44717 124 ft 27 kts 340°
2026-04-27 06:43 53.17152 158.44604 124 ft 26 kts 335°
2026-04-27 06:43 53.17317 158.44490 123 ft 25 kts 339°
2026-04-27 06:43 53.17435 158.44410 122 ft 16 kts 332°
2026-04-27 06:44 53.17523 158.44323 124 ft 10 kts 288°
2026-04-27 06:44 53.17502 158.44281 124 ft 6 kts 161°
2026-04-27 06:44 53.17456 158.44313 122 ft 8 kts 159°
2026-04-27 06:44 53.17400 158.44348 123 ft 9 kts 159°
2026-04-27 06:45 53.17338 158.44398 124 ft 10 kts 156°
2026-04-27 06:45 53.17267 158.44448 124 ft 12 kts 155°
2026-04-27 06:45 53.17235 158.44380 124 ft 3 kts 247°
2026-04-27 06:45 53.17234 158.44376 124 ft 0 kts 246°